Regional Weather Roundup
Issued by NWS

Home | Current Version | Previous Version | Text Only | Print | Product List | Glossary On
Versions: 1 2 3 4 5 6 7 8 9 10 11 12 13 14 15 16 17 18 19 20 21 22 23 24 25 26 27 28 29 30 31 32 33 34 35 36 37 38 39 40 41 42 43 44 45 46 47 48 49 50
886
ASUS44 KFWD 171403
RWRTX
NORTH TEXAS HOURLY WEATHER ROUNDUP
NATIONAL WEATHER SERVICE FORT WORTH TX
900 AM CDT THU AUG 17 2017

NOTE: "FAIR" INDICATES FEW OR NO CLOUDS BELOW 12,000 FEET WITH NO
SIGNIFICANT WEATHER AND/OR OBSTRUCTIONS TO VISIBILITY.

TXZ118-119-171500-
DALLAS/FORT WORTH METROPLEX

CITY           SKY/WX    TMP DP  RH WIND       PRES   REMARKS
DFW AIRPORT    CLOUDY    75  73  93 SE8       29.98F
DALLAS LOVE    CLOUDY    75  73  93 SE12      30.00F
FTW MEACHAM    CLOUDY    79  74  84 E8        29.98F
DAL-EXECUTIVE  CLOUDY    73  72  96 SE8       30.01S
FTW-ALLIANCE   CLOUDY    77  73  87 SE8       29.98F
FTW-NAS-JRB    CLOUDY    82  74  76 SE10      29.99S
FTW-SPINKS     PTSUNNY   79  75  89 E5        30.01F FOG
ARLINGTON      CLOUDY    75  73  93 E8        30.00F
GRAND PRAIRIE  CLOUDY    73  73 100 E7        30.02S
ADDISON        CLOUDY    75  72  88 SE7       30.01S
MESQUITE       TSTM      72  72 100 SW9       30.01F
LANCASTER      CLOUDY    72  70  95 E7        30.03S THUNDER
$$

TXZ091>094-102>105-117-120-121-131>134-171500-
NORTH CENTRAL TEXAS

CITY           SKY/WX    TMP DP  RH WIND       PRES   REMARKS
SHRMAN/DENISON CLOUDY    73  71  92 S10       30.01R
GAINESVILLE    PTSUNNY   76  73  90 SE10      30.02R
BOWIE          CLOUDY   N/A N/A N/A SE3       30.00R
BRIDGEPORT     SUNNY     78  72  81 SE8       30.00R
DECATUR        CLOUDY    76  72  86 SE12      30.00R
DENTON         CLOUDY    75  74  96 SE7       29.98F
MCKINNEY       CLOUDY   N/A N/A N/A S9        29.99F
BONHAM         CLOUDY    72  70  94 SE7       30.00R
ROCKWALL       CLOUDY    72  72 100 SE7       30.06R
TERRELL        TSTM      72  70  93 S13       30.03S FOG
WAXAHACHIE     CLOUDY    73  73 100 E9        30.04R
CLEBURNE       MOSUNNY   81  79  94 S10G16    30.02S
GRANBURY       MOSUNNY   84  74  72 S7        30.01F HX  90
$$

TXZ083>090-098>101-113>116-127>130-139>142-154-155-171500-
WESTERN NORTH TEXAS

CITY           SKY/WX    TMP DP  RH WIND       PRES   REMARKS
WICHITA FALLS  NOT AVBL
WF-KICKAPOO    SUNNY     75  73  91 NE8       30.02S
VERNON         CLOUDY    73  69  89 CALM      30.03S VSB 1/4
ABILENE        SUNNY     78  67  68 CALM      30.06R
ABILENE-DYESS  MOSUNNY   78  65  64 CALM      30.05R
GRAHAM         MOSUNNY   80  72  75 SW6       29.98S
BRECKENRIDGE   CLOUDY    81  67  62 SW5       30.02S
CISCO          CLOUDY    81  68  65 W5        30.05R
EASTLAND       MOSUNNY   79  68  68 SW3       30.05R
RANGER         MOSUNNY   79  68  69 SW7       30.04S
MINERAL WELLS  CLOUDY    82  71  69 S9        29.99R
STEPHENVILLE   CLOUDY    82  73  72 SW9       30.05R
COMANCHE       MOSUNNY   83  73  73 SW9       30.04R
BROWNWOOD      MOSUNNY   81  73  78 S8        30.04R
COLEMAN        CLOUDY    80  70  70 S5        30.05S
$$

TXZ143>147-156>162-174-175-171500-
CENTRAL TEXAS

CITY           SKY/WX    TMP DP  RH WIND       PRES   REMARKS
WACO           LGT RAIN  80  77  90 S9        30.01R
WACO-TSTC      SUNNY     81  75  83 S8        30.02R
WACO-MCGREGOR  CLOUDY    81  75  82 S10       30.02R
HILLSBORO      PTSUNNY   82  75  79 S14       30.01R
MEXIA          CLOUDY    82  75  80 S12G18    30.02R
CAMERON        CLOUDY    82  77  82 S6        30.03R HX  90
TEMPLE         CLOUDY    85  75  72 SW15      30.03R HX  93
KILLEEN        CLOUDY    81  73  78 S8        30.04R
KILLEEN-SKYLRK CLOUDY    82  74  76 SW9       30.04R
FORT HOOD      CLOUDY    81  73  77 SW12      30.01R
HAMILTON       CLOUDY    82  74  77 SW9       30.05R
LAMPASAS       CLOUDY    78  75  91 S3        30.04R
$$

TXZ095>097-106>112-122>126-135>138-148>153-164>167-171500-
EAST TEXAS

CITY           SKY/WX    TMP DP  RH WIND       PRES   REMARKS
PARIS          CLOUDY    70  69  97 S10       30.01F
SULPHUR SPRNGS RAIN      71  71  99 SE6       30.06R
MOUNT PLEASANT CLOUDY   N/A N/A N/A E6        30.06F
GILMER         RAIN      70  69  98 CALM      30.06R
MINEOLA        CLOUDY    70  70 100 CALM      30.06S
TYLER          HVY RAIN  71  71 100 NE9       30.08R VSB 1/2
LONGVIEW       RAIN      72  71  97 N14G23    30.08R FOG
MARSHALL         N/A     79  73  80 N20G28    30.09R
ATHENS         CLOUDY    79  75  89 NE8       30.03R
PALESTINE      CLOUDY    83  78  83 SW8       30.05R HX  93
JACKSONVILLE   MOSUNNY   81  78  91 W5        30.08R
HENDERSON      CLOUDY    82  77  86 W7        30.08R
CENTER         CLOUDY    87  81  84 SW8       30.06R HX 104
LUFKIN         MOSUNNY   83  78  85 SW7       30.04R HX  93
$$

SUPPLEMENTAL OBSERVATIONS (NWS FORT WORTH AREA)

CITY           SKY/WX    TMP DP  RH WIND       PRES   REMARKS
$$

SUPPLEMENTAL OBSERVATIONS (NWS NORMAN AREA)

CITY           SKY/WX    TMP DP  RH WIND       PRES   REMARKS
GOODLETT         N/A     74  67  78 N7        30.04S
ODELL            N/A     73  72  96 NW1       30.04R
CROWELL          N/A     75  70  86 NW8       30.04S
KNOX CITY        N/A     80  66  62 N5        30.04R
SEYMOUR          N/A     77  69  77 NW5       30.02S
$$

SUPPLEMENTAL OBSERVATIONS (NWS SAN ANGELO AREA)

CITY           SKY/WX    TMP DP  RH WIND       PRES   REMARKS
HASKELL          N/A     77  64  64 SW9       30.04R
THROCKMORTON     N/A     79  69  70 S2        30.04R
STAMFORD         N/A     79  67  66 SW7       30.04S
CLYDE            N/A     80  67  63 W2        30.08R
$$

SUPPLEMENTAL OBSERVATIONS (NWS SHREVEPORT AREA)

CITY           SKY/WX    TMP DP  RH WIND       PRES   REMARKS
$$

SUPPLEMENTAL OBSERVATIONS ARE A COLLECTION OF AUTOMATED INSTRUMENTS
THAT ARE MAINTAINED BY A VARIETY OF FEDERAL AND STATE AGENCIES.
CERTAIN ELEMENTS...SUCH AS HUMIDITY VALUES AND SUSTAINED WIND
SPEEDS...MAY BE APPROXIMATED.





USA.gov is the U.S. government's official web portal to all federal, state and local government web resources and services.